Simultaneous Nadir Overpasses (SNOs) Predictions

Prediction of SNOs between TERRA and METOP-C Satellite Orbit:

Table of predicted SNOs for the next 14.0 days since TLE Epoch: 1/18/2020
Index Date (TERRA) Time (TERRA) Lat,Lon (TERRA) SZA (TERRA ) Date (METOP-C) Time (METOP-C) Lat,Lon (METOP-C) SZA (METOP-C ) Distance(km) Time Diff (sec)
1 01/20/2020 09:08:58 81.27, 89.40 103.77 01/20/2020 09:08:38 81.27, 89.34 103.76 1.05 20
2 01/20/2020 09:58:24 -81.29,-102.69 76.20 01/20/2020 09:59:18 -81.28,-102.88 76.20 3.31 54
3 01/23/2020 04:43:17 81.28, 155.87 103.14 01/23/2020 04:42:27 81.27, 155.68 103.09 3.26 50
4 01/23/2020 05:32:44 -81.27, -36.57 76.89 01/23/2020 05:33:07 -81.28, -36.47 76.86 1.93 23
5 01/26/2020 01:07:03 -81.27, 29.88 77.57 01/26/2020 01:06:56 -81.28, 29.95 77.57 1.27 7
6 01/26/2020 01:56:29 81.28,-162.37 102.44 01/26/2020 01:57:34 81.28,-162.24 102.48 2.28 65
7 01/28/2020 20:41:21 -81.27, 96.27 78.31 01/28/2020 20:40:44 -81.27, 96.36 78.31 1.55 37
8 01/28/2020 21:30:47 81.28, -96.01 101.70 01/28/2020 21:31:22 81.28, -95.89 101.73 2.11 35
9 01/31/2020 16:15:40 -81.27, 162.61 79.09 01/31/2020 16:14:33 -81.27, 162.77 79.10 2.75 67




NCC Satellite Simultaneous Nadir Overpasses (SNOs) Prediction Service
